10min,FGNet,Santaquin,42.01,20DEC2017:00:00:00,40.5,17.7,39,25,32.3,0,14.2,190,17.5,0,0.00,0.00,0.00,40.1,40.5
10min,FGNet,Santaquin,42.01,20DEC2017:00:10:00,40.9,17.9,39,25,32.3,0,12.0,199,16.6,0,0.00,0.00,0.00,39.2,39.8
10min,FGNet,Santaquin,42.01,20DEC2017:00:20:00,39.9,18.1,41,25,32.3,0,11.0,201,13.7,0,0.00,0.00,0.00,39.1,39.5
10min,FGNet,Santaquin,42.01,20DEC2017:00:30:00,40.9,17.5,38,25,32.3,0,11.0,193,14.6,0,0.00,0.00,0.00,40.5,41.1
10min,FGNet,Santaquin,42.01,20DEC2017:00:40:00,44.6,16.3,32,26,32.3,0,14.1,195,21.0,0,0.00,0.00,0.00,43.3,44.0
10min,FGNet,Santaquin,42.01,20DEC2017:00:50:00,43.4,16.1,33,25,32.3,0,12.1,196,17.3,0,0.00,0.00,0.00,42.1,42.7
10min,FGNet,Santaquin,42.01,20DEC2017:01:00:00,43.9,16.0,32,25,32.3,0,12.9,195,16.0,0,0.00,0.00,0.00,42.5,43.1
10min,FGNet,Santaquin,42.01,20DEC2017:01:10:00,42.3,16.9,35,25,32.3,0,13.7,202,17.8,0,0.00,0.00,0.00,40.6,41.2
10min,FGNet,Santaquin,42.01,20DEC2017:01:20:00,41.5,16.8,36,25,32.4,0,14.8,195,18.2,0,0.00,0.00,0.00,40.7,41.0
10min,FGNet,Santaquin,42.01,20DEC2017:01:30:00,42.6,15.7,33,25,32.3,0,13.9,191,18.0,0,0.00,0.00,0.00,42.2,42.8
10min,FGNet,Santaquin,42.01,20DEC2017:01:40:00,40.2,16.9,38,25,32.4,0,15.5,196,19.6,0,0.00,0.00,0.00,39.0,39.5
10min,FGNet,Santaquin,42.01,20DEC2017:01:50:00,39.4,17.0,40,26,32.3,0,13.9,192,17.5,0,0.00,0.00,0.00,38.4,38.8
10min,FGNet,Santaquin,42.01,20DEC2017:02:00:00,38.9,16.7,40,26,32.3,0,12.6,201,16.6,0,0.00,0.00,0.00,38.5,39.0
10min,FGNet,Santaquin,42.01,20DEC2017:02:10:00,39.2,16.8,40,25,32.3,0,12.5,197,14.8,0,0.00,0.00,0.00,38.5,38.9
10min,FGNet,Santaquin,42.01,20DEC2017:02:20:00,38.4,17.2,42,25,32.4,0,12.2,198,17.1,0,0.00,0.00,0.00,37.1,37.5
10min,FGNet,Santaquin,42.01,20DEC2017:02:30:00,38.0,16.5,41,0,32.0,0,12.3,187,17.5,0,0.00,0.00,0.00,38.3,38.6
10min,FGNet,Santaquin,42.01,20DEC2017:02:40:00,40.6,15.7,36,25,32.4,0,11.5,188,14.2,0,0.00,0.00,0.00,39.4,39.9
10min,FGNet,Santaquin,42.01,20DEC2017:02:50:00,38.4,16.3,40,25,32.4,0,11.3,188,14.1,0,0.00,0.00,0.00,38.3,38.5
10min,FGNet,Santaquin,42.01,20DEC2017:03:00:00,39.6,15.5,37,25,32.5,0,9.9,196,13.0,0,0.00,0.00,0.00,39.1,39.6
10min,FGNet,Santaquin,42.01,20DEC2017:03:10:00,38.6,16.1,40,25,32.4,0,10.4,219,13.0,0,0.00,0.00,0.00,37.7,38.2
10min,FGNet,Santaquin,42.01,20DEC2017:03:20:00,39.1,15.7,38,25,32.4,0,8.4,192,11.2,0,0.00,0.00,0.00,38.7,39.1
10min,FGNet,Santaquin,42.01,20DEC2017:03:30:00,40.3,15.5,36,25,32.5,0,13.1,188,17.8,0,0.00,0.00,0.00,39.2,39.7
10min,FGNet,Santaquin,42.01,20DEC2017:03:40:00,38.5,16.3,40,25,32.4,0,13.2,197,17.1,0,0.00,0.00,0.00,37.5,38.0
10min,FGNet,Santaquin,42.01,20DEC2017:03:50:00,38.5,16.2,40,25,32.4,0,12.9,189,16.4,0,0.00,0.00,0.00,38.0,38.3
10min,FGNet,Santaquin,42.01,20DEC2017:04:00:00,38.5,16.3,40,25,32.5,0,12.9,198,16.6,0,0.00,0.00,0.00,37.8,38.2
10min,FGNet,Santaquin,42.01,20DEC2017:04:10:00,38.5,16.1,40,25,32.5,0,12.0,201,14.8,0,0.00,0.00,0.00,38.7,39.1
10min,FGNet,Santaquin,42.01,20DEC2017:04:20:00,38.0,16.6,42,25,32.5,0,13.5,196,18.4,0,0.00,0.00,0.00,37.1,37.5
10min,FGNet,Santaquin,42.01,20DEC2017:04:30:00,37.3,16.9,43,25,32.5,0,12.6,199,16.7,0,0.00,0.00,0.00,36.7,37.0
10min,FGNet,Santaquin,42.01,20DEC2017:04:40:00,40.1,14.8,35,25,32.5,0,12.1,190,17.8,0,0.00,0.00,0.00,41.1,41.5
10min,FGNet,Santaquin,42.01,20DEC2017:04:50:00,43.1,14.3,31,25,32.5,0,16.5,183,21.6,0,0.00,0.00,0.00,42.4,42.8
10min,FGNet,Santaquin,42.01,20DEC2017:05:00:00,43.4,14.3,30,25,32.5,0,15.1,184,21.8,0,0.00,0.00,0.00,42.6,43.0
10min,FGNet,Santaquin,42.01,20DEC2017:05:10:00,43.9,14.0,29,25,32.5,0,15.2,183,19.4,0,0.00,0.00,0.00,43.6,43.9
10min,FGNet,Santaquin,42.01,20DEC2017:05:20:00,42.3,14.6,32,25,32.5,0,13.2,191,18.0,0,0.00,0.00,0.00,41.4,41.9
10min,FGNet,Santaquin,42.01,20DEC2017:05:30:00,42.5,15.2,33,25,32.5,0,10.3,209,15.5,0,0.00,0.00,0.00,41.2,42.0
10min,FGNet,Santaquin,42.01,20DEC2017:05:40:00,41.3,14.9,34,25,32.5,0,10.0,202,13.0,0,0.00,0.00,0.00,39.7,40.4
10min,FGNet,Santaquin,42.01,20DEC2017:05:50:00,40.8,15.3,35,25,32.5,0,12.6,190,17.6,0,0.00,0.00,0.00,40.0,40.7
10min,FGNet,Santaquin,42.01,20DEC2017:06:00:00,41.7,15.1,34,25,32.5,0,15.1,189,20.9,0,0.00,0.00,0.00,40.7,41.4
10min,FGNet,Santaquin,42.01,20DEC2017:06:10:00,41.5,15.1,34,25,32.5,0,15.3,190,19.1,0,0.00,0.00,0.00,40.0,40.7
10min,FGNet,Santaquin,42.01,20DEC2017:06:20:00,40.9,14.8,34,25,32.5,0,13.0,190,18.2,0,0.00,0.00,0.00,40.1,40.8
10min,FGNet,Santaquin,42.01,20DEC2017:06:30:00,41.7,14.8,33,25,32.6,0,13.9,186,18.9,0,0.00,0.00,0.00,39.9,40.7
10min,FGNet,Santaquin,42.01,20DEC2017:06:40:00,41.8,14.5,33,25,32.5,0,13.7,181,19.8,0,0.00,0.00,0.00,40.4,41.2
10min,FGNet,Santaquin,42.01,20DEC2017:06:50:00,42.0,14.1,32,25,32.5,0,11.7,191,16.6,0,0.00,0.00,0.00,40.8,41.5
10min,FGNet,Santaquin,42.01,20DEC2017:07:00:00,41.4,14.1,32,25,32.6,0,11.3,189,17.1,0,0.00,0.00,0.00,40.1,40.8
10min,FGNet,Santaquin,42.01,20DEC2017:07:10:00,41.1,13.9,33,25,32.5,0,13.1,187,16.4,0,0.00,0.00,0.00,40.1,40.7
10min,FGNet,Santaquin,42.01,20DEC2017:07:20:00,40.8,13.8,33,25,32.5,0,13.4,184,18.0,0,0.00,0.00,0.00,39.9,40.6
10min,FGNet,Santaquin,42.01,20DEC2017:07:30:00,39.1,14.3,36,26,32.5,1,12.7,199,17.6,0,0.00,0.00,0.00,37.0,37.9
10min,FGNet,Santaquin,42.01,20DEC2017:07:40:00,38.3,14.7,38,25,32.5,4,14.3,198,20.0,0,0.00,0.00,0.00,37.4,37.8
10min,FGNet,Santaquin,42.01,20DEC2017:07:50:00,39.5,14.0,35,25,32.6,6,18.7,189,24.8,0,0.00,0.00,0.00,39.5,39.8
10min,FGNet,Santaquin,42.01,20DEC2017:08:00:00,40.6,13.7,33,25,32.6,13,19.7,181,23.7,0,0.00,0.00,0.00,40.3,40.6
10min,FGNet,Santaquin,42.01,20DEC2017:08:10:00,41.9,13.7,31,25,32.6,20,18.8,182,24.1,0,0.00,0.00,0.00,42.2,42.3
10min,FGNet,Santaquin,42.01,20DEC2017:08:20:00,42.8,13.8,30,25,32.6,25,19.8,184,23.9,0,0.00,0.00,0.00,42.5,42.8
10min,FGNet,Santaquin,42.01,20DEC2017:08:30:00,42.4,13.6,31,25,32.6,32,20.5,189,26.2,0,0.00,0.00,0.00,42.3,42.5
10min,FGNet,Santaquin,42.01,20DEC2017:08:40:00,42.8,13.7,30,25,32.6,25,20.3,181,27.8,0,0.00,0.00,0.00,43.0,43.1
10min,FGNet,Santaquin,42.01,20DEC2017:08:50:00,43.1,13.7,30,26,32.6,30,18.9,178,24.4,0,0.00,0.00,0.00,43.3,43.4
10min,FGNet,Santaquin,42.01,20DEC2017:09:00:00,43.9,14.1,30,25,32.6,42,17.1,180,21.8,0,0.00,0.00,0.00,44.0,44.0
10min,FGNet,Santaquin,42.01,20DEC2017:09:10:00,43.8,14.2,30,25,32.6,27,16.7,180,20.9,0,0.00,0.00,0.00,43.4,43.7
10min,FGNet,Santaquin,42.01,20DEC2017:09:20:00,44.0,14.5,30,25,32.6,49,15.0,187,20.3,0,0.00,0.00,0.00,44.1,44.0
10min,FGNet,Santaquin,42.01,20DEC2017:09:30:00,43.6,14.9,31,25,32.6,131,12.8,196,15.3,0,0.00,0.00,0.00,45.6,44.6
10min,FGNet,Santaquin,42.01,20DEC2017:09:40:00,45.9,15.0,29,25,32.6,202,11.6,188,17.3,0,0.00,0.00,0.00,48.2,47.6
10min,FGNet,Santaquin,42.01,20DEC2017:09:50:00,46.5,15.2,28,25,32.6,134,12.7,194,17.1,0,0.00,0.00,0.00,47.0,46.8
10min,FGNet,Santaquin,42.01,20DEC2017:10:00:00,45.9,14.9,28,25,32.6,142,11.3,187,15.3,0,0.00,0.00,0.00,47.1,46.8
10min,FGNet,Santaquin,42.01,20DEC2017:10:10:00,45.7,14.6,28,25,32.6,68,9.3,190,14.1,0,0.00,0.00,0.00,45.0,45.6
10min,FGNet,Santaquin,42.01,20DEC2017:10:20:00,46.4,14.8,28,25,32.7,141,9.9,188,14.2,0,0.00,0.00,0.00,48.1,47.5
10min,FGNet,Santaquin,42.01,20DEC2017:10:30:00,46.9,15.0,27,25,32.7,146,10.7,184,15.0,0,0.00,0.00,0.00,47.7,47.6
10min,FGNet,Santaquin,42.01,20DEC2017:10:40:00,46.3,14.9,28,25,32.7,120,10.8,168,15.0,0,0.00,0.00,0.00,46.4,46.9
10min,FGNet,Santaquin,42.01,20DEC2017:10:50:00,46.4,15.3,28,25,32.8,140,10.6,170,15.1,0,0.00,0.00,0.00,47.6,47.6
10min,FGNet,Santaquin,42.01,20DEC2017:11:00:00,46.9,15.8,28,25,32.9,111,9.3,183,13.2,0,0.00,0.00,0.00,47.9,48.0
10min,FGNet,Santaquin,42.01,20DEC2017:11:10:00,49.0,13.9,24,25,32.9,447,13.3,202,20.2,0,0.00,0.00,0.00,53.6,52.1
10min,FGNet,Santaquin,42.01,20DEC2017:11:20:00,50.3,14.0,23,25,33.0,240,14.7,212,21.6,0,0.00,0.00,0.00,51.0,51.3
10min,FGNet,Santaquin,42.01,20DEC2017:11:30:00,51.0,15.1,24,25,33.0,358,15.1,214,19.3,0,0.00,0.00,0.00,55.3,54.9
10min,FGNet,Santaquin,42.01,20DEC2017:11:40:00,51.4,13.6,22,25,33.1,244,16.3,202,22.1,0,0.00,0.00,0.00,52.1,52.3
10min,FGNet,Santaquin,42.01,20DEC2017:11:50:00,51.0,13.4,22,25,33.1,240,16.7,206,22.8,0,0.00,0.00,0.00,53.1,52.3
10min,FGNet,Santaquin,42.01,20DEC2017:12:00:00,49.9,13.4,23,25,33.2,257,17.1,212,21.0,0,0.00,0.00,0.00,50.1,50.6
10min,FGNet,Santaquin,42.01,20DEC2017:12:10:00,51.3,13.3,22,25,33.3,117,15.5,209,20.9,0,0.00,0.00,0.00,51.4,52.4
10min,FGNet,Santaquin,42.01,20DEC2017:12:20:00,51.7,13.8,22,25,33.3,339,14.9,213,20.9,0,0.00,0.00,0.00,54.4,53.9
10min,FGNet,Santaquin,42.01,20DEC2017:12:30:00,50.9,14.5,23,25,33.4,265,14.7,212,20.5,0,0.00,0.00,0.00,53.2,53.2
10min,FGNet,Santaquin,42.01,20DEC2017:12:40:00,51.4,13.8,22,25,33.4,416,16.8,201,22.5,0,0.00,0.00,0.00,54.2,54.3
10min,FGNet,Santaquin,42.01,20DEC2017:12:50:00,51.8,13.6,21,25,33.5,499,18.9,204,25.3,0,0.00,0.00,0.00,55.1,55.5
10min,FGNet,Santaquin,42.01,20DEC2017:13:00:00,52.3,13.9,21,25,33.6,474,16.6,196,22.1,0,0.00,0.00,0.00,56.0,56.6
10min,FGNet,Santaquin,42.01,20DEC2017:13:10:00,52.8,13.7,21,25,33.6,354,16.7,198,21.9,0,0.00,0.00,0.00,54.6,55.8
10min,FGNet,Santaquin,42.01,20DEC2017:13:20:00,52.3,13.6,21,25,33.7,239,15.7,208,21.4,0,0.00,0.00,0.00,54.9,54.3
10min,FGNet,Santaquin,42.01,20DEC2017:13:30:00,52.7,12.3,20,25,33.8,504,17.3,220,22.8,0,0.00,0.00,0.00,57.4,56.9
10min,FGNet,Santaquin,42.01,20DEC2017:13:40:00,53.0,13.6,20,25,33.9,572,15.4,214,21.8,0,0.00,0.00,0.00,60.6,59.6
10min,FGNet,Santaquin,42.01,20DEC2017:13:50:00,51.8,11.6,20,25,34.0,128,16.7,219,22.1,0,0.00,0.00,0.00,51.6,52.2
10min,FGNet,Santaquin,42.01,20DEC2017:14:00:00,51.4,12.7,21,25,34.1,166,17.3,217,25.9,0,0.00,0.00,0.00,53.3,52.4
10min,FGNet,Santaquin,42.01,20DEC2017:14:10:00,51.8,11.8,20,25,34.2,393,20.3,220,27.8,0,0.00,0.00,0.00,55.5,54.6
10min,FGNet,Santaquin,42.01,20DEC2017:14:20:00,52.9,12.4,20,26,34.3,405,17.9,232,25.2,0,0.00,0.00,0.00,57.8,56.8
10min,FGNet,Santaquin,42.01,20DEC2017:14:30:00,51.4,12.2,21,25,34.4,153,17.6,234,23.4,0,0.00,0.00,0.00,53.1,52.2
10min,FGNet,Santaquin,42.01,20DEC2017:14:40:00,51.4,12.2,20,25,34.5,214,15.9,223,21.8,0,0.00,0.00,0.00,53.9,53.0
10min,FGNet,Santaquin,42.01,20DEC2017:14:50:00,51.4,12.4,21,25,34.6,142,14.8,223,20.2,0,0.00,0.00,0.00,52.5,51.9
10min,FGNet,Santaquin,42.01,20DEC2017:15:00:00,52.3,12.8,20,25,34.7,170,14.0,213,22.5,0,0.00,0.00,0.00,55.7,55.0
10min,FGNet,Santaquin,42.01,20DEC2017:15:10:00,43.1,20.3,40,25,34.8,130,13.4,320,22.8,0,0.00,0.00,0.00,44.1,43.5
10min,FGNet,Santaquin,42.01,20DEC2017:15:20:00,39.0,20.7,47,25,34.9,144,12.6,85,19.1,0,0.00,0.00,0.00,42.4,41.6
10min,FGNet,Santaquin,42.01,20DEC2017:15:30:00,38.0,20.7,49,25,34.9,55,10.9,79,17.6,0,0.00,0.00,0.00,38.6,38.6
10min,FGNet,Santaquin,42.01,20DEC2017:15:40:00,36.9,20.6,51,25,35.1,39,13.0,53,18.2,0,0.00,0.00,0.00,37.4,37.3
10min,FGNet,Santaquin,42.01,20DEC2017:15:50:00,35.8,21.0,55,25,35.2,46,14.7,68,20.9,0,0.00,0.00,0.00,35.8,35.9
10min,FGNet,Santaquin,42.01,20DEC2017:16:00:00,34.6,21.8,59,25,35.3,18,15.0,582,19.8,0,0.00,0.00,0.00,34.5,34.5
10min,FGNet,Santaquin,42.01,20DEC2017:16:10:00,33.6,22.8,64,25,35.4,8,14.8,711,21.8,0,0.00,0.00,0.00,33.3,33.4
10min,FGNet,Santaquin,42.01,20DEC2017:16:20:00,33.1,23.5,67,25,35.4,7,15.8,711,22.1,0,0.00,0.00,0.00,33.0,33.1
10min,FGNet,Santaquin,42.01,20DEC2017:16:30:00,32.9,23.7,68,25,35.5,11,12.6,711,19.3,0,0.00,0.00,0.00,32.8,32.9
10min,FGNet,Santaquin,42.01,20DEC2017:16:40:00,32.4,24.0,71,25,35.6,4,11.7,711,18.5,0,0.00,0.00,0.00,32.0,32.2
10min,FGNet,Santaquin,42.01,20DEC2017:16:50:00,31.9,24.5,74,25,35.7,3,12.4,710,18.5,0,0.00,0.00,0.00,31.6,31.7
10min,FGNet,Santaquin,42.01,20DEC2017:17:00:00,31.5,24.4,74,25,35.7,1,9.8,709,15.0,0,0.00,0.00,0.00,31.5,31.6
10min,FGNet,Santaquin,42.01,20DEC2017:17:10:00,31.1,25.0,78,26,35.8,0,11.9,709,16.4,0,0.00,0.00,0.00,30.9,31.0
10min,FGNet,Santaquin,42.01,20DEC2017:17:20:00,29.8,26.2,86,26,35.8,0,11.5,561,16.9,0,0.00,0.00,0.00,29.8,29.9
10min,FGNet,Santaquin,42.01,20DEC2017:17:30:00,28.8,26.8,92,26,35.9,0,12.0,43,16.6,0,0.00,0.00,0.00,28.8,28.9
10min,FGNet,Santaquin,42.01,20DEC2017:17:40:00,28.4,26.9,94,25,35.9,0,9.8,46,14.4,0,0.00,0.00,0.00,28.5,28.5
10min,FGNet,Santaquin,42.01,20DEC2017:17:50:00,28.0,26.7,95,25,36.0,0,9.5,53,15.7,0,0.00,0.00,0.00,28.2,28.2
10min,FGNet,Santaquin,42.01,20DEC2017:18:00:00,28.0,26.7,95,25,36.0,0,9.7,62,13.9,0,0.00,0.00,0.00,28.0,28.1
10min,FGNet,Santaquin,42.01,20DEC2017:18:10:00,27.9,26.6,95,25,36.0,0,9.3,68,13.2,0,0.00,0.00,0.00,27.8,27.9
10min,FGNet,Santaquin,42.01,20DEC2017:18:20:00,27.6,26.3,95,26,36.0,0,11.1,62,16.7,0,0.00,0.00,0.00,27.7,27.8
10min,FGNet,Santaquin,42.01,20DEC2017:18:30:00,27.5,26.3,95,25,36.0,0,9.7,48,16.2,0,0.00,0.00,0.00,27.6,27.7
10min,FGNet,Santaquin,42.01,20DEC2017:18:40:00,27.3,26.0,95,26,36.0,0,8.9,52,12.5,0,0.00,0.00,0.00,27.3,27.4
10min,FGNet,Santaquin,42.01,20DEC2017:18:50:00,27.3,26.1,95,25,36.0,0,8.5,50,13.5,0,0.00,0.00,0.00,27.3,27.5
10min,FGNet,Santaquin,42.01,20DEC2017:19:00:00,27.3,26.0,95,25,36.0,0,8.6,85,12.3,0,0.00,0.00,0.00,27.2,27.4
10min,FGNet,Santaquin,42.01,20DEC2017:19:10:00,27.0,25.7,95,26,36.0,0,10.1,567,14.6,0,0.00,0.00,0.00,27.2,27.3
10min,FGNet,Santaquin,42.01,20DEC2017:19:20:00,26.9,25.6,95,25,36.0,0,9.7,565,13.7,0,0.00,0.00,0.00,27.0,27.1
10min,FGNet,Santaquin,42.01,20DEC2017:19:30:00,27.0,25.7,95,0,32.0,0,5.6,568,10.3,0,0.00,0.00,0.00,26.7,26.9
10min,FGNet,Santaquin,42.01,20DEC2017:19:40:00,26.8,25.5,95,26,35.9,0,6.8,564,9.2,0,0.00,0.00,0.00,26.8,27.0
10min,FGNet,Santaquin,42.01,20DEC2017:19:50:00,26.7,25.4,95,25,35.9,0,7.8,564,11.6,0,0.00,0.00,0.00,26.9,27.1
10min,FGNet,Santaquin,42.01,20DEC2017:20:00:00,26.8,25.5,95,26,35.9,0,7.3,562,11.7,0,0.00,0.00,0.00,26.9,27.0
10min,FGNet,Santaquin,42.01,20DEC2017:20:10:00,26.8,25.6,95,26,35.9,0,6.7,566,10.5,0,0.00,0.00,0.00,26.7,26.9
10min,FGNet,Santaquin,42.01,20DEC2017:20:20:00,26.9,25.6,95,25,35.9,0,4.2,579,6.9,0,0.00,0.00,0.00,26.3,26.4
10min,FGNet,Santaquin,42.01,20DEC2017:20:30:00,26.5,25.1,94,25,35.9,0,3.0,586,4.6,0,0.00,0.00,0.00,25.9,26.1
10min,FGNet,Santaquin,42.01,20DEC2017:20:40:00,26.4,25.0,94,25,35.8,0,1.8,579,3.9,0,0.00,0.00,0.00,25.8,25.9
10min,FGNet,Santaquin,42.01,20DEC2017:20:50:00,26.1,24.8,95,25,35.8,0,0.8,568,2.6,0,0.00,0.00,0.00,25.9,25.9
10min,FGNet,Santaquin,42.01,20DEC2017:21:00:00,25.9,24.5,94,25,35.8,0,4.8,570,8.0,0,0.00,0.00,0.00,25.7,25.8
10min,FGNet,Santaquin,42.01,20DEC2017:21:10:00,25.9,24.5,95,25,35.7,0,4.4,571,6.9,0,0.00,0.00,0.00,25.8,25.9
10min,FGNet,Santaquin,42.01,20DEC2017:21:20:00,25.4,24.0,94,26,35.8,0,7.1,569,15.3,0,0.00,0.00,0.00,25.6,26.0
10min,FGNet,Santaquin,42.01,20DEC2017:21:30:00,24.9,23.4,94,25,35.7,0,9.2,574,13.9,0,0.00,0.00,0.00,25.4,25.8
10min,FGNet,Santaquin,42.01,20DEC2017:21:40:00,25.0,23.6,94,25,35.7,0,5.3,583,7.4,0,0.00,0.00,0.00,25.2,25.5
10min,FGNet,Santaquin,42.01,20DEC2017:21:50:00,25.1,23.5,94,25,35.7,0,4.0,585,5.3,0,0.00,0.00,0.00,24.6,24.8
10min,FGNet,Santaquin,42.01,20DEC2017:22:00:00,24.7,23.2,94,25,35.7,0,3.6,592,5.8,0,0.00,0.00,0.00,24.4,24.6
10min,FGNet,Santaquin,42.01,20DEC2017:22:10:00,24.5,23.0,94,25,35.7,0,2.5,593,4.8,0,0.00,0.00,0.00,24.4,24.5
10min,FGNet,Santaquin,42.01,20DEC2017:22:20:00,24.7,23.2,94,25,35.7,0,4.8,589,7.3,0,0.00,0.00,0.00,25.0,25.2
10min,FGNet,Santaquin,42.01,20DEC2017:22:30:00,24.2,22.6,94,26,35.6,0,7.3,580,10.8,0,0.00,0.00,0.00,25.0,25.7
10min,FGNet,Santaquin,42.01,20DEC2017:22:40:00,23.9,22.2,93,25,35.6,0,8.1,583,11.4,0,0.00,0.00,0.00,24.8,25.5
10min,FGNet,Santaquin,42.01,20DEC2017:22:50:00,23.8,22.2,93,26,35.6,0,6.5,589,10.1,0,0.00,0.00,0.00,24.6,25.6
10min,FGNet,Santaquin,42.01,20DEC2017:23:00:00,24.2,22.6,94,25,35.6,0,4.3,590,7.4,0,0.00,0.00,0.00,24.3,24.7
10min,FGNet,Santaquin,42.01,20DEC2017:23:10:00,24.2,22.5,93,25,35.5,0,3.8,606,5.3,0,0.00,0.00,0.00,23.9,24.7
10min,FGNet,Santaquin,42.01,20DEC2017:23:20:00,23.8,22.2,93,25,35.6,0,3.1,612,5.5,0,0.00,0.00,0.00,23.5,24.1
10min,FGNet,Santaquin,42.01,20DEC2017:23:30:00,23.7,22.1,93,25,35.5,0,2.8,601,4.2,0,0.00,0.00,0.00,23.7,24.1
10min,FGNet,Santaquin,42.01,20DEC2017:23:40:00,23.7,22.1,93,25,35.5,0,3.5,607,4.8,0,0.00,0.00,0.00,23.3,23.6
10min,FGNet,Santaquin,42.01,20DEC2017:23:50:00,23.6,21.9,93,25,35.5,0,4.0,610,5.5,0,0.00,0.00,0.00,23.5,23.8
10min,FGNet,Kaysville,42.03,20DEC2017:00:00:00,39.5,25.5,57,15,32.9,0,4.5,59,8.2,0,0.00,0.00,0.00,38.4,38.7
10min,FGNet,Kaysville,42.03,20DEC2017:00:10:00,40.3,24.7,53,15,32.9,0,3.1,94,6.5,0,0.00,0.00,0.00,38.5,39.5
10min,FGNet,Kaysville,42.03,20DEC2017:00:20:00,40.7,24.1,51,15,32.9,0,1.0,121,4.9,0,0.00,0.00,0.00,39.7,40.2
10min,FGNet,Kaysville,42.03,20DEC2017:00:30:00,40.7,24.3,52,15,32.7,0,5.5,104,9.1,0,0.00,0.00,0.00,40.6,40.6
10min,FGNet,Kaysville,42.03,20DEC2017:00:40:00,40.4,25.7,55,15,32.9,0,3.4,259,5.1,0,0.00,0.00,0.00,38.3,38.8
10min,FGNet,Kaysville,42.03,20DEC2017:00:50:00,39.0,26.1,60,15,32.9,0,4.9,287,8.7,0,0.00,0.00,0.00,36.7,37.5
10min,FGNet,Kaysville,42.03,20DEC2017:01:00:00,38.9,25.8,59,15,32.9,0,2.6,148,4.2,0,0.00,0.00,0.00,37.4,38.0
10min,FGNet,Kaysville,42.03,20DEC2017:01:10:00,38.9,25.6,59,15,33.1,0,4.7,153,9.2,0,0.00,0.00,0.00,38.6,38.6
10min,FGNet,Kaysville,42.03,20DEC2017:01:20:00,40.3,24.9,54,15,32.9,0,3.8,121,6.7,0,0.00,0.00,0.00,39.1,39.7
10min,FGNet,Kaysville,42.03,20DEC2017:01:30:00,40.7,24.8,53,15,32.9,0,3.2,127,4.4,0,0.00,0.00,0.00,39.3,39.7
10min,FGNet,Kaysville,42.03,20DEC2017:01:40:00,41.4,24.4,50,15,33.1,0,3.3,121,4.0,0,0.00,0.00,0.00,39.6,40.2
10min,FGNet,Kaysville,42.03,20DEC2017:01:50:00,42.8,23.6,46,15,32.7,0,2.8,122,4.8,0,0.00,0.00,0.00,41.0,41.8
10min,FGNet,Kaysville,42.03,20DEC2017:02:00:00,40.4,25.3,55,15,32.9,0,2.2,254,4.0,0,0.00,0.00,0.00,38.2,38.9
10min,FGNet,Kaysville,42.03,20DEC2017:02:10:00,38.0,26.1,62,15,32.7,0,4.8,275,6.7,0,0.00,0.00,0.00,36.0,36.7
10min,FGNet,Kaysville,42.03,20DEC2017:02:20:00,37.7,25.9,62,15,32.9,0,0.9,226,2.8,0,0.00,0.00,0.00,36.3,36.4
10min,FGNet,Kaysville,42.03,20DEC2017:02:30:00,41.1,24.5,51,15,32.7,0,3.4,88,6.0,0,0.00,0.00,0.00,40.2,40.1
10min,FGNet,Kaysville,42.03,20DEC2017:02:40:00,42.6,23.5,46,15,32.9,0,2.5,143,3.7,0,0.00,0.00,0.00,41.1,41.9
10min,FGNet,Kaysville,42.03,20DEC2017:02:50:00,43.7,22.5,43,15,32.7,0,3.4,136,5.8,0,0.00,0.00,0.00,43.5,43.8
10min,FGNet,Kaysville,42.03,20DEC2017:03:00:00,44.6,22.6,41,15,32.9,0,3.4,138,5.3,0,0.00,0.00,0.00,41.9,42.9
10min,FGNet,Kaysville,42.03,20DEC2017:03:10:00,45.0,22.5,41,15,32.7,0,3.5,132,6.5,0,0.00,0.00,0.00,43.0,43.5
10min,FGNet,Kaysville,42.03,20DEC2017:03:20:00,45.9,21.6,38,15,32.9,0,4.8,132,7.3,0,0.00,0.00,0.00,43.9,44.6
10min,FGNet,Kaysville,42.03,20DEC2017:03:30:00,46.5,21.3,37,15,32.9,0,4.0,134,6.4,0,0.00,0.00,0.00,44.0,45.0
10min,FGNet,Kaysville,42.03,20DEC2017:03:40:00,47.4,20.1,34,15,32.9,0,4.7,144,8.9,0,0.00,0.00,0.00,45.9,46.9
10min,FGNet,Kaysville,42.03,20DEC2017:03:50:00,47.8,20.0,33,15,32.9,0,4.7,151,7.3,0,0.00,0.00,0.00,45.8,46.5
10min,FGNet,Kaysville,42.03,20DEC2017:04:00:00,47.6,19.9,33,15,32.9,0,4.6,124,7.1,0,0.00,0.00,0.00,45.7,46.4
10min,FGNet,Kaysville,42.03,20DEC2017:04:10:00,47.9,20.1,33,15,32.7,0,3.6,152,6.9,0,0.00,0.00,0.00,44.7,46.4
10min,FGNet,Kaysville,42.03,20DEC2017:04:20:00,47.9,20.0,33,15,32.9,0,3.2,170,6.7,0,0.00,0.00,0.00,45.5,46.6
10min,FGNet,Kaysville,42.03,20DEC2017:04:30:00,48.4,20.1,32,15,32.7,0,4.9,164,9.6,0,0.00,0.00,0.00,46.5,47.2
10min,FGNet,Kaysville,42.03,20DEC2017:04:40:00,49.3,19.4,30,15,32.9,0,6.5,162,11.9,0,0.00,0.00,0.00,47.8,48.4
10min,FGNet,Kaysville,42.03,20DEC2017:04:50:00,49.4,19.0,30,15,32.7,0,5.9,154,8.5,0,0.00,0.00,0.00,47.4,48.3
10min,FGNet,Kaysville,42.03,20DEC2017:05:00:00,50.6,18.5,28,15,32.9,0,8.8,167,16.7,0,0.00,0.00,0.00,48.9,49.7
10min,FGNet,Kaysville,42.03,20DEC2017:05:10:00,50.4,18.1,28,15,32.9,0,9.1,170,13.9,0,0.00,0.00,0.00,49.6,50.1
10min,FGNet,Kaysville,42.03,20DEC2017:05:20:00,50.4,18.6,28,15,32.7,0,8.6,152,14.2,0,0.00,0.00,0.00,48.5,49.1
10min,FGNet,Kaysville,42.03,20DEC2017:05:30:00,50.4,18.4,28,15,32.7,0,8.3,157,15.0,0,0.00,0.00,0.00,48.7,49.3
10min,FGNet,Kaysville,42.03,20DEC2017:05:40:00,50.6,17.9,27,15,32.9,0,9.6,163,16.2,0,0.00,0.00,0.00,49.2,49.7
10min,FGNet,Kaysville,42.03,20DEC2017:05:50:00,50.7,18.4,28,15,32.9,0,9.9,167,16.2,0,0.00,0.00,0.00,49.0,49.6
10min,FGNet,Kaysville,42.03,20DEC2017:06:00:00,50.8,18.5,27,15,32.7,0,11.1,159,18.2,0,0.00,0.00,0.00,48.9,49.6
10min,FGNet,Kaysville,42.03,20DEC2017:06:10:00,51.0,17.9,27,15,32.9,0,12.7,158,18.5,0,0.00,0.00,0.00,49.9,50.3
10min,FGNet,Kaysville,42.03,20DEC2017:06:20:00,50.8,17.8,27,15,32.9,0,13.2,165,18.5,0,0.00,0.00,0.00,50.1,50.4
10min,FGNet,Kaysville,42.03,20DEC2017:06:30:00,50.8,17.9,27,15,32.9,0,12.9,163,21.0,0,0.00,0.00,0.00,49.9,50.3
10min,FGNet,Kaysville,42.03,20DEC2017:06:40:00,51.0,17.8,26,15,32.9,0,14.5,165,22.5,0,0.00,0.00,0.00,50.2,50.4
10min,FGNet,Kaysville,42.03,20DEC2017:06:50:00,50.8,17.8,27,15,32.9,0,13.6,158,21.9,0,0.00,0.00,0.00,49.5,49.9
10min,FGNet,Kaysville,42.03,20DEC2017:07:00:00,50.3,17.6,27,15,32.9,0,12.1,161,21.0,0,0.00,0.00,0.00,49.4,49.7
10min,FGNet,Kaysville,42.03,20DEC2017:07:10:00,50.5,17.7,27,15,32.7,0,12.2,163,19.6,0,0.00,0.00,0.00,48.8,49.6
10min,FGNet,Kaysville,42.03,20DEC2017:07:20:00,50.4,17.1,26,15,32.9,0,12.0,163,18.7,0,0.00,0.00,0.00,49.7,50.1
10min,FGNet,Kaysville,42.03,20DEC2017:07:30:00,50.8,17.4,26,15,32.7,0,13.1,163,19.3,0,0.00,0.00,0.00,49.4,49.8
10min,FGNet,Kaysville,42.03,20DEC2017:07:40:00,50.5,17.8,27,15,32.9,1,10.6,161,15.5,0,0.00,0.00,0.00,48.5,49.2
10min,FGNet,Kaysville,42.03,20DEC2017:07:50:00,50.5,17.1,26,15,32.7,1,11.3,162,19.3,0,0.00,0.00,0.00,49.8,50.1
10min,FGNet,Kaysville,42.03,20DEC2017:08:00:00,50.5,17.8,27,15,32.9,3,10.9,163,19.1,0,0.00,0.00,0.00,48.8,49.3
10min,FGNet,Kaysville,42.03,20DEC2017:08:10:00,50.3,17.4,27,15,32.9,8,10.7,162,15.5,0,0.00,0.00,0.00,49.3,49.7
10min,FGNet,Kaysville,42.03,20DEC2017:08:20:00,50.2,17.7,27,15,32.9,14,10.9,161,17.5,0,0.00,0.00,0.00,49.2,49.5
10min,FGNet,Kaysville,42.03,20DEC2017:08:30:00,50.5,17.4,27,15,33.1,19,12.5,166,17.8,0,0.00,0.00,0.00,49.8,50.0
10min,FGNet,Kaysville,42.03,20DEC2017:08:40:00,50.6,17.6,27,15,32.9,28,13.8,170,21.2,0,0.00,0.00,0.00,49.9,50.0
10min,FGNet,Kaysville,42.03,20DEC2017:08:50:00,50.2,17.3,27,15,32.9,35,12.9,166,21.6,0,0.00,0.00,0.00,49.9,50.0
10min,FGNet,Kaysville,42.03,20DEC2017:09:00:00,50.5,17.3,26,15,32.7,48,13.4,168,22.3,0,0.00,0.00,0.00,49.9,50.0
10min,FGNet,Kaysville,42.03,20DEC2017:09:10:00,50.7,17.3,26,15,32.9,56,12.9,162,19.8,0,0.00,0.00,0.00,50.3,50.2
10min,FGNet,Kaysville,42.03,20DEC2017:09:20:00,50.8,17.1,26,15,32.7,62,14.5,165,22.5,0,0.00,0.00,0.00,50.7,50.5
10min,FGNet,Kaysville,42.03,20DEC2017:09:30:00,50.8,20.1,29,15,32.9,65,9.6,212,16.9,0,0.00,0.00,0.00,48.7,48.5
10min,FGNet,Kaysville,42.03,20DEC2017:09:40:00,46.9,20.5,35,15,32.9,88,11.4,291,22.3,0,0.00,0.00,0.00,47.9,47.2
10min,FGNet,Kaysville,42.03,20DEC2017:09:50:00,48.8,21.3,33,15,32.9,104,15.3,272,29.3,0,0.00,0.00,0.00,46.2,45.9
10min,FGNet,Kaysville,42.03,20DEC2017:10:00:00,44.4,21.4,40,15,32.9,151,10.3,295,15.9,0,0.00,0.00,0.00,45.8,44.6
10min,FGNet,Kaysville,42.03,20DEC2017:10:10:00,44.2,22.0,41,15,33.1,159,8.0,315,13.3,0,0.00,0.00,0.00,48.3,45.7
10min,FGNet,Kaysville,42.03,20DEC2017:10:20:00,45.2,21.9,39,15,32.9,184,5.2,239,7.1,0,0.00,0.00,0.00,49.2,47.2
10min,FGNet,Kaysville,42.03,20DEC2017:10:30:00,45.8,22.5,39,15,32.9,245,5.2,236,6.9,0,0.00,0.00,0.00,51.2,48.4
10min,FGNet,Kaysville,42.03,20DEC2017:10:40:00,46.1,22.2,38,15,32.7,170,6.4,278,10.1,0,0.00,0.00,0.00,49.5,47.8
10min,FGNet,Kaysville,42.03,20DEC2017:10:50:00,45.8,21.7,38,15,32.7,173,8.0,333,11.2,0,0.00,0.00,0.00,48.5,46.9
10min,FGNet,Kaysville,42.03,20DEC2017:11:00:00,46.0,21.0,37,15,33.1,171,7.7,201,11.6,0,0.00,0.00,0.00,48.8,47.1
10min,FGNet,Kaysville,42.03,20DEC2017:11:10:00,45.8,20.9,37,15,32.9,182,7.0,336,9.6,0,0.00,0.00,0.00,48.9,46.9
10min,FGNet,Kaysville,42.03,20DEC2017:11:20:00,45.5,23.8,42,15,32.9,246,7.5,306,9.8,0,0.00,0.00,0.00,49.3,47.0
10min,FGNet,Kaysville,42.03,20DEC2017:11:30:00,45.8,22.6,39,15,32.9,382,8.3,340,11.2,0,0.00,0.00,0.00,50.0,48.3